Date String (YYYY-MM-DD hh:mm:ss) UTC,Instrument flags,Ambient pressure (hPa),Sample flow (lpm),Bypass flow (lpm),Sample temperature (°C),Ambient temperature (°C),ASC tube jacket temperature (°C),LED temperature (°C),Box temperature (°C),Sample RH (%),Span deviation,Mass concentration (μg/m³),Mass concentration (μg/m³),Mass concentration (μg/m³)
DateTimeUTC,F1_M11,P_M11,Q1_M11,Q2_M11,T1_M11,T2_M11,T3_M11,T4_M11,T5_M11,U1_M11,ZSPAN_M11,X0_M11,X2_M11,X1_M11
2022-09-17 12:00:00,,0825.4,5.01,0.00,30.9,29.4,00.0,39.7,32.6,18.6,0000.0,0007.70,0004.16,0003.64
2022-09-17 12:01:00,,0825.4,4.99,0.00,30.9,29.4,00.0,39.7,32.7,18.5,0000.0,0007.89,0004.17,0003.63
2022-09-17 12:02:00,,0825.4,5.00,0.00,30.9,29.4,00.0,39.7,32.6,18.5,0000.0,0007.95,0004.17,0003.61
2022-09-17 12:03:00,,0825.4,5.01,0.00,30.9,29.4,00.0,39.7,32.6,18.4,0000.0,0008.12,0004.18,0003.60
2022-09-17 12:04:00,,0825.5,4.99,0.00,30.9,29.4,00.0,39.7,32.7,18.1,0000.0,0008.22,0004.17,0003.59
2022-09-17 12:05:00,,0825.5,5.01,0.00,30.9,29.4,00.0,39.7,32.7,18.0,0000.0,0008.05,0004.11,0003.56
2022-09-17 12:06:00,,0825.5,4.99,0.00,30.9,29.4,00.0,39.7,32.7,17.8,0000.0,0007.82,0004.03,0003.53
2022-09-17 12:07:00,,0825.5,4.99,0.00,30.9,29.4,00.0,39.7,32.7,17.8,0000.0,0007.63,0003.95,0003.49
2022-09-17 12:08:00,,0825.5,5.01,0.00,30.9,29.4,00.0,39.7,32.7,17.8,0000.0,0007.60,0003.92,0003.45
2022-09-17 12:09:00,,0825.4,4.99,0.00,30.9,29.3,00.0,39.7,32.6,17.9,0000.0,0007.63,0003.90,0003.44
2022-09-17 12:10:00,,0825.4,5.00,0.00,30.9,29.4,00.0,39.7,32.6,18.0,0000.0,0008.01,0003.90,0003.42
2022-09-17 12:11:00,,0825.4,5.01,0.00,30.9,29.4,00.0,39.7,32.6,18.2,0000.0,0008.01,0003.89,0003.41
2022-09-17 12:12:00,,0825.4,4.99,0.00,30.9,29.4,00.0,39.7,32.6,18.3,0000.0,0007.85,0003.86,0003.40
2022-09-17 12:13:00,,0825.4,5.01,0.00,30.9,29.4,00.0,39.7,32.6,18.2,0000.0,0007.93,0003.87,0003.39
2022-09-17 12:14:00,,0825.4,5.00,0.00,30.9,29.4,00.0,39.7,32.6,18.2,0000.0,0007.80,0003.83,0003.38
2022-09-17 12:15:00,,0825.4,4.99,0.00,30.9,29.4,00.0,39.7,32.6,18.2,0000.0,0007.73,0003.81,0003.37
2022-09-17 12:16:00,,0825.5,5.01,0.00,30.9,29.4,00.0,39.7,32.6,18.2,0000.0,0008.14,0003.84,0003.39
2022-09-17 12:17:00,,0825.5,5.01,0.00,30.9,29.4,00.0,39.7,32.7,18.2,0000.0,0008.50,0003.90,0003.42
2022-09-17 12:18:00,,0825.5,4.99,0.00,30.9,29.4,00.0,39.7,32.6,18.2,0000.0,0008.78,0003.94,0003.44
2022-09-17 12:19:00,,0825.5,5.01,0.00,30.9,29.4,00.0,39.7,32.7,18.2,0000.0,0009.70,0003.93,0003.45
2022-09-17 12:20:00,,0825.6,5.01,0.00,30.9,29.4,00.0,39.7,32.7,18.3,0000.0,0010.28,0003.98,0003.46
2022-09-17 12:21:00,,0825.6,5.00,0.00,30.9,29.4,00.0,39.7,32.6,18.1,0000.0,0010.11,0003.95,0003.45
2022-09-17 12:22:00,,0825.6,5.00,0.00,30.9,29.4,00.0,39.7,32.6,18.1,0000.0,0010.42,0003.95,0003.45
2022-09-17 12:23:00,,0825.6,5.00,0.00,30.9,29.4,00.0,39.7,32.6,18.0,0000.0,0010.23,0003.96,0003.45
2022-09-17 12:24:00,,0825.6,5.01,0.00,30.9,29.3,00.0,39.7,32.6,18.0,0000.0,0010.04,0003.92,0003.43
2022-09-17 12:25:00,,0825.5,4.99,0.00,30.9,29.4,00.0,39.7,32.6,18.1,0000.0,0010.03,0003.92,0003.44
2022-09-17 12:26:00,,0825.6,5.01,0.00,30.9,29.4,00.0,39.7,32.6,18.1,0000.0,0009.85,0003.91,0003.43
2022-09-17 12:27:00,,0825.6,5.01,0.00,30.9,29.4,00.0,39.7,32.6,18.2,0000.0,0009.57,0003.92,0003.42
2022-09-17 12:28:00,,0825.6,4.99,0.00,30.9,29.3,00.0,39.7,32.6,18.2,0000.0,0009.95,0003.91,0003.42
2022-09-17 12:29:00,,0825.6,5.00,0.00,30.9,29.3,00.0,39.7,32.6,18.2,0000.0,0009.84,0003.89,0003.42
2022-09-17 12:30:00,,0825.6,5.01,0.00,30.9,29.3,00.0,39.7,32.6,18.1,0000.0,0009.11,0003.91,0003.42
2022-09-17 12:31:00,,0825.6,4.99,0.00,30.9,29.4,00.0,39.7,32.6,18.1,0000.0,0009.34,0003.89,0003.44
2022-09-17 12:32:00,,0825.6,5.01,0.00,30.9,29.4,00.0,39.7,32.6,18.2,0000.0,0009.10,0003.90,0003.45
2022-09-17 12:33:00,,0825.7,5.01,0.00,30.9,29.3,00.0,39.7,32.6,18.1,0000.0,0008.86,0003.91,0003.45
2022-09-17 12:34:00,,0825.7,4.99,0.00,30.9,29.4,00.0,39.7,32.6,18.2,0000.0,0009.20,0003.95,0003.46
2022-09-17 12:35:00,,0825.7,5.01,0.00,30.9,29.4,00.0,39.7,32.6,18.2,0000.0,0009.42,0003.99,0003.48
2022-09-17 12:36:00,,0825.7,5.00,0.00,30.9,29.4,00.0,39.7,32.6,18.3,0000.0,0009.54,0004.02,0003.48
2022-09-17 12:37:00,,0825.7,5.00,0.00,30.9,29.4,00.0,39.7,32.6,18.2,0000.0,0009.63,0004.04,0003.50
2022-09-17 12:38:00,,0825.7,5.01,0.00,30.9,29.4,00.0,39.7,32.6,18.0,0000.0,0009.60,0004.04,0003.51
2022-09-17 12:39:00,,0825.7,4.99,0.00,30.9,29.4,00.0,39.7,32.7,17.9,0000.0,0009.20,0004.07,0003.51
2022-09-17 12:40:00,,0825.6,5.01,0.00,30.9,29.4,00.0,39.7,32.6,17.7,0000.0,0009.86,0004.07,0003.51
2022-09-17 12:41:00,,0825.6,4.99,0.00,30.9,29.4,00.0,39.7,32.6,17.6,0000.0,0010.02,0004.04,0003.49
2022-09-17 12:42:00,,0825.6,5.01,0.00,30.9,29.4,00.0,39.7,32.6,17.6,0000.0,0009.31,0004.05,0003.48
2022-09-17 12:43:00,,0825.6,4.99,0.00,30.9,29.3,00.0,39.7,32.6,17.5,0000.0,0009.86,0004.05,0003.46
2022-09-17 12:44:00,,0825.6,5.01,0.00,30.9,29.4,00.0,39.7,32.7,17.3,0000.0,0009.79,0004.02,0003.45
2022-09-17 12:45:00,,0825.6,5.01,0.00,30.9,29.4,00.0,39.7,32.6,17.3,0000.0,0009.33,0003.95,0003.42
2022-09-17 12:46:00,,0825.6,4.99,0.00,30.9,29.4,00.0,39.7,32.6,17.3,0000.0,0009.13,0003.91,0003.40
2022-09-17 12:47:00,,0825.6,5.00,0.00,30.9,29.4,00.0,39.7,32.6,17.3,0000.0,0009.01,0003.86,0003.37
2022-09-17 12:48:00,,0825.6,5.01,0.00,30.9,29.3,00.0,39.7,32.6,17.3,0000.0,0009.09,0003.85,0003.34
2022-09-17 12:49:00,,0825.6,5.00,0.00,30.9,29.4,00.0,39.7,32.6,17.3,0000.0,0008.99,0003.79,0003.31
2022-09-17 12:50:00,,0825.6,5.00,0.00,30.9,29.4,00.0,39.7,32.6,17.3,0000.0,0008.65,0003.71,0003.29
2022-09-17 12:51:00,,0825.6,5.01,0.00,30.9,29.4,00.0,39.7,32.6,17.3,0000.0,0007.69,0003.66,0003.26
2022-09-17 12:52:00,,0825.7,5.00,0.00,30.9,29.4,00.0,39.7,32.7,17.3,0000.0,0007.25,0003.63,0003.25
2022-09-17 12:53:00,,0825.7,5.01,0.00,30.9,29.4,00.0,39.7,32.6,17.2,0000.0,0007.34,0003.60,0003.24
2022-09-17 12:54:00,,0825.7,5.00,0.00,30.9,29.4,00.0,39.7,32.6,17.1,0000.0,0006.56,0003.59,0003.22
2022-09-17 12:55:00,,0825.7,5.00,0.00,30.9,29.4,00.0,39.7,32.7,17.1,0000.0,0006.31,0003.58,0003.20
2022-09-17 12:56:00,,0825.7,5.01,0.00,30.9,29.3,00.0,39.7,32.6,17.1,0000.0,0006.85,0003.57,0003.19
2022-09-17 12:57:00,,0825.7,4.98,0.00,30.9,29.3,00.0,39.7,32.6,17.1,0000.0,0006.97,0003.56,0003.18
2022-09-17 12:58:00,,0825.7,5.01,0.00,30.9,29.3,00.0,39.7,32.6,17.1,0000.0,0006.95,0003.55,0003.17
2022-09-17 12:59:00,,0825.6,4.99,0.00,30.9,29.4,00.0,39.7,32.6,17.2,0000.0,0006.88,0003.56,0003.17
